YAOGAN-30 04C (43083 NORAD) Tracking and Keplerian Element Data

This shows tracking and keplerian element data for the satellite.

Feedback or suggestion? Click here.




ElementValue
Catalog43083
NameYAOGAN-30 04C
Epoch Orbit38791
Epoch Day35.10005825
Epoch Year2025
RAAN297.9077
Inclination34.9956
Eccentricity0.0004492
Argument of Perigee112.6282
Mean Anonmoly247.49
Mean Motion14.98647962
Decay Rate6.024E-05
L11 43083U 17085C 25035.10005825 .00006024 00000+0 49382-3 0 9995
L22 43083 34.9956 297.9077 0004492 112.6282 247.4900 14.98647962387918



Live tracking and technical data element details for YAOGAN-30 04C (NORAD 43083). YAOGAN-30 04C can be tracked NOW for your location showing map with azimuth and elevation plus other details from your city location.







IsCatalogInMostPopularTable: catalog: 43083, numindb: 562
Update: records affected: 1



GetName: 43083 YAOGAN-30 04C

Hit Count: updated at: Thu, 15 May 2025 10:41:09 GMT